Tracking 18945 objects as of 19-Jan-2018
HD Live streaming from Space Station
objects crossing your sky now

FENGYUN 1C DEB

Track FENGYUN 1C DEB now!
10-day predictions


NORAD ID: 31563
Int'l Code: 1999-025BZE
Perigee: 627.7 km
Apogee: 830.0 km
Inclination: 98.9 °
Period: 99.2 minutes
Semi major axis: 7099 km
RCS: 0.0017 m2 (small)
Launch date: May 10, 1999
Source: People's Republic of China (PRC)
Launch site: Taiyaun Space Center, China (TSC)

Note: This is SATELLITE DEBRIS
aabbcc
Your satellite tracking list
Your tracking list is empty




NASA's NSSDC Master Catalog

Two Line Element Set (TLE):
1 31563U 99025BZE 18019.22758699  .00000374  00000-0  95288-4 0  9990
2 31563  98.9013 298.5271 0142490 166.6214 193.8820 14.51206662567484
Source of the keplerian elements: AFSPC